Location: Boiro
(42.6475°N, 8.8834°W)
Time: 11:54:04
(UTC+01:00)

Vanguard 2 Rocket - Pass Details

Date: 09 December 2021
Orbit: 554 x 3325 km, 32.9° (Epoch: 19 January)

Event Time Altitude Azimuth Distance (km) Brightness Sun altitude
Rises 22:28:40 0° 264° (W) 3,772 10.7 -48.1°
Reaches altitude 10° 22:31:15 10° 253° (WSW) 3,110 10.0 -48.5°
Enters shadow 22:33:30 19° 238° (WSW) 2,709 9.5 -48.9°
